Flag for U.S.A. Weather past 2 weeks in Charlottesville, Virginia, U.S.A.

Now
73 °F

Scattered clouds.


Feels Like: 75 °F
Forecast: 63 / 86 °F
Wind: 6 mph from South

Location: Charlottesville-Albemarle Airport

Current Time: Aug 29, 2015 at 10:49:24 AM

Latest Report: Aug 29, 2015 at 9:53 AM


Visibility: 10 mi

Pressure: 30.21 "Hg

Humidity: 74%

Dew point: 64 °F

Location of CharlottesvilleLocation

Historic Weather in Charlottesville — Graph

°F

Charlottesville temperature yesterday

Maximum temperature yesterday: 82 °F (at 3:53 PM)
Minimum temperature yesterday: 62 °F (at 5:53 AM)
Average temperature yesterday: 72 °F

Past Weeks' High & Low Weather Summary

 TemperatureHumidityPressure
High92 °F (Aug 17, 3:53 PM)97% (Aug 20, 2:00 AM)30.22 "Hg (Aug 20, 2:00 AM)
Low58 °F (Aug 22, 6:53 AM)31% (Aug 17, 4:53 PM)29.80 "Hg (Aug 24, 4:53 PM)
Average74 °F71%30.03 "Hg
* Reported Aug 14 9:53 AM — Aug 29 9:53 AM, Charlottesville, Weather by CustomWeather, © 2015

Note: Actual official high and low records may vary slightly from our data, if they occured in-between our weather recording intervals... More about our weather records

Advertising

Charlottesville weather history for previous 24 hours

 ConditionsComfort  
Time TempWeatherWind HumidityBarometerVisibility
9:53 AM
Sat, Aug 29
73 °FScattered clouds.6 mph74%30.21 "Hg10 mi
8:53 AM69 °FScattered clouds.No wind79%30.21 "Hg10 mi
7:53 AM64 °FFog.No wind90%30.21 "Hg6 mi
6:53 AM63 °FClear.No wind90%30.19 "Hg7 mi
5:53 AM63 °FClear.No wind90%30.18 "Hg9 mi
4:53 AM65 °FPassing clouds.3 mph87%30.18 "Hg10 mi
3:53 AM64 °FClear.No wind84%30.17 "Hg10 mi
2:53 AM68 °FPassing clouds.No wind76%30.18 "Hg10 mi
1:53 AM70 °FPassing clouds.3 mph71%30.19 "Hg10 mi
12:53 AM72 °FPassing clouds.5 mph68%30.19 "Hg10 mi
11:53 PM
Fri, Aug 28
73 °FOvercast.No wind69%30.19 "Hg10 mi
10:53 PM72 °FMostly cloudy.No wind73%30.18 "Hg10 mi
9:53 PM71 °FPassing clouds.No wind71%30.17 "Hg10 mi
8:53 PM75 °FPassing clouds.3 mph62%30.15 "Hg10 mi
7:53 PM77 °FWarm.5 mph60%30.12 "Hg10 mi
6:53 PM80 °FSunny.6 mph52%30.11 "Hg10 mi
5:53 PM81 °FSunny.8 mph51%30.12 "Hg10 mi
4:53 PM82 °FSunny.7 mph49%30.12 "Hg10 mi
3:53 PM82 °FPassing clouds.8 mph49%30.13 "Hg10 mi
2:53 PM81 °FSunny.7 mph49%30.15 "Hg10 mi
1:53 PM81 °FPartly sunny.7 mph51%30.17 "Hg10 mi
12:53 PM79 °FPartly sunny.No wind50%30.19 "Hg10 mi
11:53 AM76 °FScattered clouds.3 mph58%30.20 "Hg10 mi
10:53 AM75 °FSunny.No windN/A30.21 "Hg10 mi
Weather by CustomWeather, © 2015

See weather overviewHow to use our weather pages